Showing default

CE-SAT-IE, 58987

Orbit data source: Space-Track

CE-SAT-IE, 58987 is a payload satellite owned by Canon STL (JP) in SSO that was launched on Sat, 17 Feb 2024 UTC via a H3-22S launch vehicle from the Tanegashima Space Center (TNSTA). Payload-class satellites include a variety of spacecraft equipped with specific instruments for various scientific and technological missions. These include communications satellites like Starlink; space stations such as the ISS; scientific satellites like the Hubble; Earth observation satellites from companies like Planet Labs, Umbra, and HawkEye 360; GPS; miniature CubeSats for education and research; and military/defense satellites.

Loading next visibility...
Identifier
58987, 2024-032A
Orbit
SSO
Country
Flag of JPJP / JPN
Related business
Manufacturer
Canon STL
Mission
Operational Commercial Imaging
Bus & Motor
CE-SAT, Unknown motor
Mass
70 kg wet, 70 kg dry
Launch date (UTC)
2024-02-17 (2 years ago)
Launch vehicle
H3-22S
Launch site
Tanegashima Space Center (TNSTA)
Object type
Payload
Rocket body
Debris
Shape & HBR
Box, 1.0 m
Radar Cross Section
0.525 m², Medium (>0.1 m² and < 1m²)

Expand to show TLE details & history
Last TLE update: 1 day ago

TLE from 1 day ago
0 CE-SAT-IE
1 58987U 24032A   26172.39385311  .00000311  00000-0  62095-4 0  9990
2 58987  97.9964 226.9867 0004049  76.4745 283.6911 14.68289076125451
Epoch: 2026-06-21T09:27Z
TLE epoch observation values (Epoch: 2026-06-21T09:27:08.908Z)
Latitude
-0.00005°
Longitude
175.60483°
Altitude
668.864 km
Speed
7.523 km/s
True Right ascension
15h 07m 56s
True Declination
0° 00' 00"
Sunlit
Object was in full shadow at epoch
Visualization orbit readout
Latitude
Unknown
Longitude
Unknown
Altitude
Unknown
Speed
Unknown
Apparent Right ascension
Unknown
Apparent Declination
Unknown
Sunlit
N/A
Visualization observer readout
Local Sidereal Time
21:27:22
Azimuth
Unknown
Elevation
Unknown
Doppler factor
Unknown
Orbital elements
Apogee altitude
666.447 km
Perigee altitude
660.745 km
Semi-major axis
7,041.733 km
Eccentricity
0.0004
Inclination
97.9964°
RAAN
226.9867°
Arg. of periapsis
76.4745°
True anomaly
283.64601°
Mean anomaly
283.6911°
Eccentric anomaly
283.66856°
Mean motion
3.67302 °/min
Orbital period
98.01 mins
BSTAR
0.000062095
Loading maneuver chart data...
Computing Atmospheric mass density...
Loading historical data...
Loading historical data...
Loading historical data...
Loading historical data...
Loading historical data...
Loading historical data...
Loading historical data...
Other satellites on launch #32 in the year 2024 (2024-02-17 UTC)

Documentation

Showing up to 5 results
|